Location: Ferchesar
(52.6477°N, 12.4298°E)
Time: 14:14:20
(UTC+01:00)

AO-73 - Pass Details

Date: 28 October 2021
Orbit: 581 x 660 km, 97.6° (Epoch: 04 December)

Event Time Altitude Azimuth Distance (km) Brightness Sun altitude
Rises 05:35:34 0° 17° (NNE) 2,829 ? -22.3°
Reaches altitude 10° 05:37:47 10° 23° (NNE) 1,930 ? -22.0°
Maximum altitude 05:41:51 51° 100° (E) 755 ? -21.4°
Drops below altitude 10° 05:45:59 10° 177° (S) 1,951 ? -20.7°
Sets 05:48:14 0° 182° (S) 2,863 ? -20.4°
